FW8367 Weather Reports


Display with metric or nautical units.
time (UTC)temp
F
wind
direction
speed
MPH
gust
MPH
rain 1hr
in
rain 24hr
in
rain mn
in
humidity
%
barometer
mb
20260510083000 51 219 5.0 9.0 0.00 0.12 0.12 95 1005.2
20260510082500 51 194 4.0 8.0 0.00 0.12 0.12 95 1005.1
20260510082000 51 218 4.0 8.0 0.00 0.12 0.12 95 1005.2
20260510081501 51 234 4.0 9.0 0.00 0.12 0.12 95 1005.1
20260510081001 51 213 4.0 9.0 0.00 0.12 0.12 95 1005.1
20260510080500 51 215 4.0 9.0 0.00 0.12 0.12 96 1005.1
20260510080004 50 215 3.0 8.0 0.00 0.12 0.12 95 1005.1
20260510075500 50 227 2.0 4.0 0.00 0.12 0.12 95 1005.1
20260510075000 50 228 2.0 4.0 0.00 0.12 0.12 95 1005.0
20260510074000 49 206 1.0 2.0 0.00 0.12 0.12 94 1005.0
20260510073501 49 176 2.0 3.0 0.00 0.12 0.12 95 1004.8
20260510073002 49 176 2.0 3.0 0.00 0.12 0.12 94 1004.8
20260510072500 50 153 2.0 3.0 0.00 0.12 0.12 94 1004.7
20260510072000 50 151 2.0 3.0 0.00 0.12 0.12 94 1004.7
20260510071000 50 184 2.0 4.0 0.00 0.12 0.12 94 1004.8
20260510070500 50 175 2.0 5.0 0.00 0.12 0.12 94 1004.8
20260510070004 50 163 2.0 5.0 0.00 0.12 0.12 94 1004.8
20260510065500 50 166 3.0 6.0 0.00 0.12 0.12 94 1004.8
20260510065000 50 192 3.0 6.0 0.00 0.12 0.12 94 1004.8
20260510064500 50 182 3.0 6.0 0.00 0.12 0.12 94 1004.8
20260510064000 50 214 3.0 7.0 0.00 0.12 0.12 94 1004.7
20260510063500 50 190 3.0 7.0 0.00 0.12 0.12 94 1004.6
20260510063001 50 192 4.0 7.0 0.01 0.12 0.12 94 1004.7
20260510062501 50 199 4.0 7.0 0.02 0.12 0.12 94 1004.6
20260510061500 50 205 6.0 10.0 0.04 0.12 0.12 94 1004.6
20260510061001 50 207 6.0 12.0 0.05 0.12 0.12 94 1004.5
20260510055500 50 148 5.0 9.0 0.08 0.12 0.12 94 1004.2
20260510054500 50 133 6.0 11.0 0.10 0.12 0.12 94 1004.1
20260510054000 50 178 7.0 12.0 0.12 0.12 0.12 94 1004.3
20260510053500 50 157 7.0 12.0 0.12 0.12 0.12 94 1004.4
20260510053000 50 135 7.0 12.0 0.11 0.11 0.11 93 1004.4
20260510052500 50 147 6.0 12.0 0.10 0.10 0.10 93 1004.7
20260510052000 50 166 5.0 10.0 0.09 0.09 0.09 92 1004.8
20260510051500 50 191 5.0 8.0 0.08 0.08 0.08 92 1004.9
20260510051000 50 173 5.0 10.0 0.07 0.07 0.07 91 1005.0
20260510050501 50 192 4.0 10.0 0.07 0.07 0.07 91 1004.9
20260510050005 50 172 4.0 8.0 0.06 0.06 0.06 90 1004.9
20260510045503 51 226 5.0 8.0 0.04 0.04 0.04 89 1005.1
20260510045004 51 196 5.0 8.0 0.03 0.03 0.03 89 1005.1
20260510044503 51 170 5.0 8.0 0.02 0.02 0.02 88 1005.1
20260510044003 51 188 6.0 9.0 0.00 0.00 0.00 87 1005.1
20260510043502 51 147 6.0 10.0 0.00 0.00 0.00 86 1005.0
20260510043004 51 171 6.0 12.0 0.00 0.00 0.00 85 1004.7
20260510042502 51 174 7.0 12.0 0.00 0.00 0.00 85 1004.5
20260510042002 51 201 7.0 13.0 0.00 0.00 0.00 85 1004.5
20260510041504 51 184 7.0 13.0 0.00 0.00 0.00 85 1004.4
20260510041002 51 167 8.0 13.0 0.00 0.00 0.00 85 1004.4
20260510040006 51 164 8.0 18.0 0.00 0.00 0.00 84 1004.5
20260510035503 51 170 7.0 16.0 0.00 0.00 0.00 84 1004.3
20260510035003 51 185 7.0 15.0 0.00 0.00 0.00 84 1004.2
20260510034503 51 146 8.0 15.0 0.00 0.00 0.00 84 1004.3
20260510033503 51 156 9.0 17.0 0.00 0.00 0.00 84 1004.3
20260510033004 51 168 8.0 17.0 0.00 0.00 0.00 84 1004.3
20260510032503 51 131 7.0 13.0 0.00 0.00 0.00 84 1004.5
20260510032003 51 129 7.0 13.0 0.00 0.00 0.00 84 1004.5
20260510031003 51 152 6.0 11.0 0.00 0.00 0.00 85 1004.6
20260510030503 51 159 6.0 10.0 0.00 0.00 0.00 85 1004.6
20260510030006 51 127 6.0 12.0 0.00 0.00 0.00 85 1004.6
20260510025003 51 152 8.0 15.0 0.00 0.00 0.00 84 1004.6
20260510024503 51 155 7.0 15.0 0.00 0.00 0.00 84 1004.7
20260510023503 51 129 6.0 11.0 0.00 0.00 0.00 84 1005.0
20260510023004 51 152 7.0 14.0 0.00 0.00 0.00 84 1005.1
20260510022003 51 162 7.0 16.0 0.00 0.00 0.00 84 1005.0
20260510021503 51 131 8.0 16.0 0.00 0.00 0.00 84 1005.1
20260510021003 51 136 7.0 12.0 0.00 0.00 0.00 84 1005.0
20260510020502 51 121 5.0 11.0 0.00 0.00 0.00 84 1005.1
20260510020005 51 125 4.0 10.0 0.00 0.00 0.00 84 1005.2
20260510015503 51 109 5.0 11.0 0.00 0.00 0.00 84 1005.3
20260510015003 51 169 6.0 11.0 0.00 0.00 0.00 83 1005.4
20260510014503 51 148 5.0 11.0 0.00 0.00 0.00 83 1005.4
20260510014002 51 167 5.0 11.0 0.00 0.00 0.00 83 1005.4
20260510013503 52 164 4.0 10.0 0.00 0.00 0.00 83 1005.3
20260510013003 52 153 4.0 10.0 0.00 0.00 0.00 82 1005.6
20260510012503 52 150 3.0 7.0 0.00 0.00 0.00 82 1005.6
20260510012003 52 158 3.0 9.0 0.00 0.00 0.00 82 1005.6
20260510011503 52 135 4.0 9.0 0.00 0.00 0.00 82 1005.6
20260510011002 52 191 4.0 8.0 0.00 0.00 0.00 82 1005.6
20260510010503 52 164 3.0 8.0 0.00 0.00 0.00 81 1005.6
20260510010004 52 127 5.0 11.0 0.00 0.00 0.00 81 1005.7
20260510005502 52 126 6.0 11.0 0.00 0.00 0.00 81 1005.6
20260510005001 52 181 5.0 12.0 0.00 0.00 0.00 80 1005.5
20260510003501 53 140 5.0 9.0 0.00 0.00 0.00 79 1005.2
20260510003003 53 159 6.0 15.0 0.00 0.00 0.00 79 1005.3
20260510002501 53 130 7.0 15.0 0.00 0.00 0.00 79 1005.4
20260510002002 53 159 7.0 12.0 0.00 0.00 0.00 78 1005.4
20260510001502 54 131 7.0 17.0 0.00 0.00 0.00 78 1005.3
20260510000501 54 92 7.0 14.0 0.00 0.00 0.00 77 1005.3
20260510000006 54 116 7.0 12.0 0.00 0.00 0.00 76 1005.3
20260509235502 54 165 7.0 14.0 0.00 0.00 0.00 76 1005.3
20260509235001 54 186 9.0 19.0 0.00 0.00 0.00 76 1005.1
20260509234502 54 158 10.0 19.0 0.00 0.00 0.00 75 1004.9
20260509234001 55 114 9.0 17.0 0.00 0.00 0.00 74 1004.9
20260509233502 55 100 7.0 15.0 0.00 0.00 0.00 74 1005.1
20260509233003 55 146 7.0 16.0 0.00 0.00 0.00 73 1005.1
20260509232502 56 121 9.0 18.0 0.00 0.00 0.00 73 1005.2
20260509232001 56 119 8.0 18.0 0.00 0.00 0.00 72 1005.1
20260509231502 56 113 8.0 16.0 0.00 0.00 0.00 71 1005.1
20260509231001 56 82 9.0 16.0 0.00 0.00 0.00 70 1005.1
20260509230502 57 98 9.0 17.0 0.00 0.00 0.00 69 1005.2
20260509230006 57 82 9.0 16.0 0.00 0.00 0.00 69 1005.1
20260509225001 58 121 8.0 16.0 0.00 0.00 0.00 67 1005.2
20260509224502 58 142 8.0 15.0 0.00 0.00 0.00 67 1005.3
20260509224001 58 108 9.0 19.0 0.00 0.00 0.00 67 1005.5
20260509223502 58 136 9.0 19.0 0.00 0.00 0.00 66 1005.6
20260509223002 59 163 9.0 19.0 0.00 0.00 0.00 65 1005.4
20260509222501 59 139 10.0 19.0 0.00 0.00 0.00 65 1005.4
20260509222002 59 147 9.0 18.0 0.00 0.00 0.00 64 1005.4
20260509221501 59 148 10.0 18.0 0.00 0.00 0.00 63 1005.4
20260509220004 60 153 8.0 16.0 0.00 0.00 0.00 61 1005.4
20260509215504 60 136 8.0 15.0 0.00 0.00 0.00 60 1005.4
20260509215002 60 128 10.0 18.0 0.00 0.00 0.00 59 1005.4
20260509214502 60 148 11.0 18.0 0.00 0.00 0.00 58 1005.4
20260509214001 60 153 11.0 21.0 0.00 0.00 0.00 58 1005.1
20260509213502 60 121 12.0 21.0 0.00 0.00 0.00 57 1005.1
20260509213002 60 140 11.0 19.0 0.00 0.00 0.00 57 1005.1
20260509212001 61 173 10.0 23.0 0.00 0.00 0.00 55 1005.3
20260509211503 61 161 11.0 23.0 0.00 0.00 0.00 54 1005.4
20260509211001 61 181 12.0 22.0 0.00 0.00 0.00 54 1005.4
20260509210502 61 143 11.0 21.0 0.00 0.00 0.00 52 1005.5
20260509205001 62 151 12.0 19.0 0.00 0.00 0.00 46 1005.3
20260509204502 62 113 12.0 21.0 0.00 0.00 0.00 46 1005.4
20260509204002 62 174 11.0 21.0 0.00 0.00 0.00 45 1005.4
20260509203002 62 166 12.0 20.0 0.00 0.00 0.00 42 1005.4
20260509202001 63 156 12.0 21.0 0.00 0.00 0.00 42 1005.4
20260509201502 63 152 12.0 24.0 0.00 0.00 0.00 40 1005.6
20260509201002 63 147 10.0 24.0 0.00 0.00 0.00 39 1005.6
20260509200501 63 121 12.0 18.0 0.00 0.00 0.00 37 1005.6
20260509200005 63 173 13.0 23.0 0.00 0.00 0.00 38 1005.7
20260509195501 63 148 12.0 23.0 0.00 0.00 0.00 36 1005.8
20260509195002 63 135 11.0 19.0 0.00 0.00 0.00 36 1005.8
20260509194502 64 150 11.0 21.0 0.00 0.00 0.00 36 1005.9
20260509194002 63 150 11.0 21.0 0.00 0.00 0.00 35 1005.9
20260509193501 64 167 12.0 20.0 0.00 0.00 0.00 35 1006.0
20260509193002 64 137 11.0 20.0 0.00 0.00 0.00 31 1006.0
20260509192501 64 149 10.0 19.0 0.00 0.00 0.00 33 1006.0
20260509192002 64 152 11.0 22.0 0.00 0.00 0.00 35 1006.1
20260509191502 64 146 11.0 22.0 0.00 0.00 0.00 32 1006.1
20260509191001 63 115 11.0 20.0 0.00 0.00 0.00 30 1006.1
20260509190502 64 136 10.0 20.0 0.00 0.00 0.00 30 1006.2
20260509185501 63 143 11.0 19.0 0.00 0.00 0.00 32 1006.5
20260509185001 63 144 11.0 19.0 0.00 0.00 0.00 30 1006.6
20260509184001 64 207 9.0 18.0 0.00 0.00 0.00 33 1006.6
20260509183501 63 140 11.0 19.0 0.00 0.00 0.00 31 1006.6
20260509183002 63 180 12.0 20.0 0.00 0.00 0.00 31 1006.6
20260509182501 63 154 13.0 20.0 0.00 0.00 0.00 29 1006.7
20260509181502 63 148 11.0 20.0 0.00 0.00 0.00 29 1006.7
20260509181002 63 174 11.0 20.0 0.00 0.00 0.00 30 1006.8
20260509180005 63 117 12.0 19.0 0.00 0.00 0.00 30 1006.9
20260509175002 63 165 11.0 24.0 0.00 0.00 0.00 30 1007.1
20260509174502 63 147 10.0 24.0 0.00 0.00 0.00 30 1007.1
20260509174001 63 160 10.0 21.0 0.00 0.00 0.00 29 1007.1
20260509173002 63 148 9.0 19.0 0.00 0.00 0.00 29 1007.6
20260509172502 64 130 9.0 16.0 0.00 0.00 0.00 30 1007.6
20260509170501 63 125 9.0 15.0 0.00 0.00 0.00 32 1007.9
20260509165501 63 135 8.0 17.0 0.00 0.00 0.00 33 1008.1
20260509165002 63 129 8.0 17.0 0.00 0.00 0.00 32 1008.2
20260509164502 63 138 8.0 17.0 0.00 0.00 0.00 34 1008.3
20260509164001 63 128 7.0 13.0 0.00 0.00 0.00 31 1008.4
20260509163501 63 186 6.0 13.0 0.00 0.00 0.00 32 1008.6
20260509163002 63 140 7.0 14.0 0.00 0.00 0.00 31 1008.6
20260509162501 62 144 7.0 15.0 0.00 0.00 0.00 34 1008.6
20260509161501 62 167 8.0 17.0 0.00 0.00 0.00 32 1008.8
20260509161001 62 149 7.0 17.0 0.00 0.00 0.00 32 1008.9
20260509160501 62 150 7.0 15.0 0.00 0.00 0.00 33 1009.0
20260509160004 62 174 6.0 15.0 0.00 0.00 0.00 35 1009.1
20260509155501 61 158 6.0 11.0 0.00 0.00 0.00 35 1009.1
20260509155001 61 173 7.0 11.0 0.00 0.00 0.00 36 1009.3
20260509154502 60 174 8.0 13.0 0.00 0.00 0.00 36 1009.4
20260509154001 60 143 8.0 12.0 0.00 0.00 0.00 36 1009.5
20260509153501 60 162 9.0 13.0 0.00 0.00 0.00 37 1009.5
20260509153002 60 163 9.0 16.0 0.00 0.00 0.00 37 1009.6
20260509152501 60 171 7.0 16.0 0.00 0.00 0.00 36 1009.6
20260509152001 60 104 7.0 13.0 0.00 0.00 0.00 37 1009.6
20260509151502 59 150 7.0 13.0 0.00 0.00 0.00 39 1009.7
20260509150501 59 131 7.0 12.0 0.00 0.00 0.00 41 1009.8
20260509145502 58 123 7.0 11.0 0.00 0.00 0.00 44 1009.8
20260509145002 58 144 6.0 11.0 0.00 0.00 0.00 45 1009.8
20260509144002 57 165 5.0 10.0 0.00 0.00 0.00 44 1009.9
20260509143501 57 104 5.0 10.0 0.00 0.00 0.00 45 1010.0
20260509143001 57 144 5.0 10.0 0.00 0.00 0.00 45 1010.0
20260509142501 57 188 5.0 10.0 0.00 0.00 0.00 45 1010.1
20260509141502 56 167 6.0 11.0 0.00 0.00 0.00 46 1010.1
20260509141001 56 113 5.0 10.0 0.00 0.00 0.00 46 1010.2
20260509140501 56 205 5.0 10.0 0.00 0.00 0.00 45 1010.2
20260509140005 56 148 5.0 10.0 0.00 0.00 0.00 46 1010.2
20260509135500 55 144 5.0 10.0 0.00 0.00 0.00 46 1010.2
20260509135000 55 114 4.0 8.0 0.00 0.00 0.00 46 1010.2
20260509134000 54 191 3.0 7.0 0.00 0.00 0.00 49 1010.2
20260509133500 54 126 2.0 6.0 0.00 0.00 0.00 50 1010.2
20260509133002 53 91 2.0 5.0 0.00 0.00 0.00 52 1010.3
20260509132500 53 88 3.0 7.0 0.00 0.00 0.00 52 1010.4
20260509132000 52 112 5.0 7.0 0.00 0.00 0.00 53 1010.4
20260509131502 51 155 5.0 7.0 0.00 0.00 0.00 52 1010.4
20260509131000 51 157 4.0 8.0 0.00 0.00 0.00 51 1010.4
20260509130500 51 81 4.0 8.0 0.00 0.00 0.00 53 1010.4
20260509130002 51 146 4.0 8.0 0.00 0.00 0.00 53 1010.5
20260509125500 50 136 3.0 7.0 0.00 0.00 0.00 54 1010.5
20260509125000 50 163 2.0 6.0 0.00 0.00 0.00 56 1010.5
20260509124500 49 87 3.0 6.0 0.00 0.00 0.00 59 1010.5
20260509124000 48 163 3.0 6.0 0.00 0.00 0.00 59 1010.6
20260509123501 47 134 2.0 5.0 0.00 0.00 0.00 60 1010.6
20260509122000 47 138 2.0 5.0 0.00 0.00 0.00 60 1010.6
20260509121000 46 106 2.0 6.0 0.00 0.00 0.00 63 1010.8
20260509120501 46 154 3.0 6.0 0.00 0.00 0.00 63 1010.8
20260509120005 46 107 3.0 5.0 0.00 0.00 0.00 66 1010.8
20260509115500 45 155 3.0 5.0 0.00 0.00 0.00 66 1010.7
20260509115000 45 146 2.0 6.0 0.00 0.00 0.00 69 1010.8
20260509114500 44 138 1.0 4.0 0.00 0.00 0.00 71 1010.8
20260509114000 43 186 2.0 4.0 0.00 0.00 0.00 73 1010.7
20260509113500 43 151 3.0 6.0 0.00 0.00 0.00 72 1010.7
20260509113000 42 161 3.0 6.0 0.00 0.00 0.00 72 1010.8
20260509112500 42 134 1.0 5.0 0.00 0.00 0.00 74 1010.7
20260509112000 42 152 0.0 4.0 0.00 0.00 0.00 77 1010.7
20260509111500 41 5 0.0 2.0 0.00 0.00 0.00 77 1010.7
20260509111000 41 5 0.0 2.0 0.00 0.00 0.00 77 1010.9
20260509110500 41 132 0.0 0.0 0.00 0.00 0.00 78 1010.8
20260509110003 41 132 0.0 0.0 0.00 0.00 0.00 78 1010.7
20260509104959 40 132 0.0 0.0 0.00 0.00 0.00 77 1010.7
20260509104000 39 132 0.0 0.0 0.00 0.00 0.00 78 1010.8
20260509103500 39 132 0.0 0.0 0.00 0.00 0.00 79 1010.8
20260509103000 38 132 0.0 0.0 0.00 0.00 0.00 80 1010.7
20260509102500 38 132 0.0 0.0 0.00 0.00 0.00 80 1010.7
20260509102000 37 132 0.0 0.0 0.00 0.00 0.00 80 1010.7
20260509101500 37 132 0.0 0.0 0.00 0.00 0.00 80 1010.6
20260509101000 37 132 0.0 0.0 0.00 0.00 0.00 80 1010.5
20260509100500 37 132 0.0 0.0 0.00 0.00 0.00 80 1010.5
20260509100004 37 132 0.0 0.0 0.00 0.00 0.00 79 1010.3
20260509095000 37 132 0.0 0.0 0.00 0.00 0.00 77 1010.3
20260509094500 37 132 0.0 0.0 0.00 0.00 0.00 77 1010.4
20260509093501 38 132 0.0 0.0 0.00 0.00 0.00 75 1010.2
20260509093000 38 132 0.0 1.0 0.00 0.00 0.00 74 1010.2
20260509092000 39 132 1.0 2.0 0.00 0.00 0.00 72 1010.2
20260509091500 40 132 1.0 3.0 0.00 0.00 0.00 71 1010.1
20260509091000 40 132 0.0 2.0 0.00 0.00 0.00 70 1010.1
20260509090500 41 179 0.0 1.0 0.00 0.00 0.00 69 1010.1
20260509090003 41 179 1.0 2.0 0.00 0.00 0.00 69 1010.0
20260509085000 41 179 1.0 2.0 0.00 0.00 0.00 68 1010.1
20260509084501 41 179 1.0 2.0 0.00 0.00 0.00 68 1010.2
20260509083500 42 179 2.0 3.0 0.00 0.00 0.00 67 1010.1